Regional Weather Roundup
Issued by NWS Green Bay, WI

Home | Current Version | Previous Version | Text Only | Print | Product List | Glossary On
Versions: 1 2 3 4 5 6 7 8 9 10 11 12 13 14 15 16 17 18 19 20 21 22 23 24 25 26 27 28 29 30 31 32 33 34 35 36 37 38 39 40 41 42 43 44 45 46 47 48 49 50
000
ASUS43 KGRB 290810
RWRGRB

NORTH-CENTRAL AND NORTHEAST WISCONSIN REGIONAL WEATHER ROUNDUP
NATIONAL WEATHER SERVICE GREEN BAY WI
200 AM CST THU JAN 29 2015

WIZ005-009-010>012-018-019-290900-
NORTH CENTRAL WISCONSIN

CITY           SKY/WX    TMP DP  RH WIND       PRES   REMARKS
IRONWOOD       CLOUDY    27  27 100 W8        29.77S
MANITOWISH WTR CLOUDY    25  24  99 W3        29.77S FOG
ARBOR VITAE    CLOUDY    27  23  86 CALM      29.77S
EAGLE RIVER    CLOUDY    25  21  84 CALM      29.75F
LAND O LAKES   CLOUDY    26  23  88 CALM      29.76F
RHINELANDER    LGT SNOW  25  22  88 W6        29.77S FOG
PHILLIPS       CLOUDY    25  24  96 CALM      29.78S FOG
ANTIGO         CLOUDY    24  24  98 W3        29.76S FOG
TOMAHAWK       CLOUDY    25  23  93 CALM      29.79R FOG
MERRILL        CLOUDY    26  26 100 CALM      29.79R FOG
$$

WIZ013-073-290900-
NORTHEAST WISCONSIN

CITY           SKY/WX    TMP DP  RH WIND       PRES   REMARKS
IRON MOUNTAIN  CLOUDY    27  25  92 CALM      29.78S FOG
MARINETTE      CLOUDY    30  25  80 CALM      29.80S
OCONTO         CLOUDY    31  26  81 MISG      29.80F
$$

WIZ017-030-035>037-045-290900-
CENTRAL WISCONSIN

CITY           SKY/WX    TMP DP  RH WIND       PRES   REMARKS
MEDFORD        FOG       25  24  96 NW3       29.78S VSB 1
WAUSAU         CLOUDY    26  24  92 CALM      29.77S FOG
MOSINEE        CLOUDY    27  27 100 CALM      29.78F FOG
MARSHFIELD     CLOUDY    27  24  89 CALM      29.78S FOG
WISC RAPIDS    CLOUDY    27  24  89 CALM      29.80F FOG
STEVENS POINT  CLOUDY    24  23  96 CALM      29.79S FOG
WAUPACA        CLOUDY    31  24  77 CALM      29.80S
SHAWANO        CLOUDY    32  25  74 SW3       29.80S
CLINTONVILLE   CLOUDY    30  25  80 SW3       29.80S
$$

WIZ038-039-048-051-290900-
FOX VALLEY

CITY           SKY/WX    TMP DP  RH WIND       PRES   REMARKS
NWS GREEN BAY  CLOUDY    31  25  78 CALM      29.80F
APPLETON       CLOUDY    30  23  74 S3        29.79F
OSHKOSH        CLOUDY    31  26  82 CALM      29.78F HAZE
FOND DU LAC    CLOUDY    31  26  82 CALM      29.78F
$$

WIZ022-050-052-290900-
EAST CENTRAL WISCONSIN

CITY           SKY/WX    TMP DP  RH WIND       PRES   REMARKS
STURGEON BAY   CLOUDY    32  27  80 S8        29.82S
MANITOWOC      MIX PCPN  32  30  92 S8        29.80F
SHEBOYGAN      CLOUDY    32  26  78 S5        29.79F
$$

LMZ563-521-522-541>543-290900-
LAKESHORE

STATION/POSITION TIME  TEMP    WIND        PRES    VSBY  WAVE
                       AIR SEA DIR/SP/G                  HT/PER
                 (UTC) (F)     (DEG/KT/KT) (MB)    (MI)  (FT/S)
SHEBOYGAN LKSHOR 0800   34     190/ 13/ 14 1009.8F
KEWAUNEE LKSHORE 0800   34     190/ 15/ 18 1008.7S
NORTHPORT PIER   0700   32     160/  5/ 16 1010.2F
SISTER BAY LKSHO 0700   32     200/ 17/ 19   N/A
CHAMBERS ISLAND  0800   31     160/  4/  7 1009.8S
MENOMINEE LKSHOR 0800   31     180/  7     1010.1S
$$



USA.gov is the U.S. government's official web portal to all federal, state and local government web resources and services.